Location: *
(49.9853°N, 3.5569°E)
Time: 14:10:39
(UTC+00:00)

Timation 2 Rocket - Pass Details

Date: 22 September 2019
Orbit: 908 x 1074 km, 70.0° (Epoch: 16 October)

Event Time Altitude Azimuth Distance (km) Brightness Sun altitude
Rises 18:04:03 0° 208° (SSW) 3,766 7.4 -3.9°
Reaches altitude 10° 18:06:41 10° 208° (SSW) 2,795 6.7 -4.4°
Maximum altitude 18:13:13 89° 119° (ESE) 992 4.1 -5.4°
Drops below altitude 10° 18:19:31 10° 31° (NNE) 2,693 6.1 -6.4°
Sets 18:22:00 0° 32° (NNE) 3,621 6.7 -6.8°
